This demonstration page uses our WeatherBlox Daily Observations layout. Learn more.

Left ArrowRight Arrow

Hourly Observations for January 2, 2018

Temp ( °F °C ) Dew Point ( °F °C ) Humidity (%) Winds ( mph kmh ) Pressure ( in mb ) Visibility ( mi km ) Precip ( " mm )
12:15 am 00:15 Clear 14 -10 3 -16 62 62 NW 12 19 30.56 1035 10 16.0934 0 0
12:35 am 00:35 Clear 14 -10 3 -16 62 62 NW 10 17 30.56 1035 10 16.0934 0 0
12:55 am 00:55 Clear 12 -11 1 -17 62 62 NW 8 13 30.56 1035 10 16.0934 0 0
1:15 am 01:15 Clear 12 -11 3 -16 67 67 NW 7 11 30.56 1035 10 16.0934 0 0
1:35 am 01:35 Clear 12 -11 3 -16 67 67 NW 8 13 30.56 1035 10 16.0934 0 0
1:55 am 01:55 Clear 12 -11 3 -16 67 67 NW 8 13 30.56 1035 10 16.0934 0 0
2:15 am 02:15 Clear 12 -11 3 -16 67 67 NW 10 17 30.59 1036 10 16.0934 0 0
2:35 am 02:35 Clear 14 -10 3 -16 62 62 WNW 12 19 30.59 1036 10 16.0934 0 0
2:55 am 02:55 Clear 14 -10 3 -16 62 62 NW 16 26 30.59 1036 10 16.0934 0 0
3:15 am 03:15 Clear 14 -10 3 -16 62 62 NW 15 24 30.59 1036 10 16.0934 0 0
3:35 am 03:35 Clear 14 -10 3 -16 62 62 NW 15 24 30.59 1036 10 16.0934 0 0
3:55 am 03:55 Clear 14 -10 3 -16 62 62 NW 17 28 30.59 1036 10 16.0934 0 0
4:15 am 04:15 Clear 14 -10 3 -16 62 62 WNW 16 26 30.59 1036 10 16.0934 0 0
4:35 am 04:35 Clear 14 -10 3 -16 62 62 WNW 16 26 30.59 1036 10 16.0934 0 0
4:55 am 04:55 Clear 12 -11 3 -16 67 67 WNW 12 19 30.59 1036 10 16.0934 0 0
5:15 am 05:15 Clear 12 -11 3 -16 67 67 WNW 14 22 30.59 1036 10 16.0934 0 0
5:35 am 05:35 Clear 12 -11 1 -17 62 62 NW 9 15 30.59 1036 10 16.0934 0 0
5:55 am 05:55 Clear 12 -11 1 -17 62 62 NW 14 22 30.59 1036 10 16.0934 0 0
6:15 am 06:15 Clear 12 -11 1 -17 62 62 NW 12 19 30.59 1036 10 16.0934 0 0
6:35 am 06:35 Clear 12 -11 1 -17 62 62 WNW 15 24 30.59 1036 10 16.0934 0 0
6:55 am 06:55 Clear 12 -11 3 -16 67 67 WNW 14 22 30.59 1036 10 16.0934 0 0
7:15 am 07:15 Clear 12 -11 3 -16 67 67 WNW 10 17 30.62 1037 10 16.0934 0 0
7:35 am 07:35 Sunny 12 -11 1 -17 62 62 NW 8 13 30.62 1037 10 16.0934 0 0
7:55 am 07:55 Sunny 12 -11 1 -17 62 62 WNW 9 15 30.62 1037 10 16.0934 0 0
8:15 am 08:15 Sunny 12 -11 1 -17 62 62 WNW 10 17 30.62 1037 10 16.0934 0 0
8:35 am 08:35 Sunny 14 -10 3 -16 62 62 NW 8 13 30.62 1037 10 16.0934 0 0
8:55 am 08:55 Sunny 14 -10 3 -16 62 62 NNW 12 19 30.62 1037 10 16.0934 0 0
9:15 am 09:15 Sunny 16 -9 3 -16 57 57 WNW 10 17 30.65 1038 10 16.0934 0 0
9:35 am 09:35 Sunny 16 -9 3 -16 57 57 NW 12 19 30.62 1037 10 16.0934 0 0
9:55 am 09:55 Sunny 18 -8 3 -16 53 53 WNW 15 24 30.65 1038 10 16.0934 0 0
10:15 am 10:15 Sunny 18 -8 3 -16 53 53 NNW 12 19 30.65 1038 10 16.0934 0 0
10:35 am 10:35 Sunny 19 -7 3 -16 49 49 WNW 12 19 30.65 1038 10 16.0934 0 0
10:55 am 10:55 Sunny 19 -7 3 -16 49 49 NW 12 19 30.62 1037 10 16.0934 0 0
11:15 am 11:15 Sunny 19 -7 3 -16 49 49 NW 9 15 30.62 1037 10 16.0934 0 0
11:35 am 11:35 Sunny 21 -6 3 -16 45 45 W 9 15 30.59 1036 10 16.0934 0 0
11:55 am 11:55 Sunny 21 -6 3 -16 45 45 NW 10 17 30.59 1036 10 16.0934 0 0
12:15 pm 12:15 Sunny 23 -5 3 -16 42 42 NW 7 11 30.56 1035 10 16.0934 0 0
12:35 pm 12:35 Sunny 23 -5 3 -16 42 42 W 7 11 30.56 1035 10 16.0934 0 0
12:55 pm 12:55 Sunny 23 -5 3 -16 42 42 W 9 15 30.56 1035 10 16.0934 0 0
1:15 pm 13:15 Sunny 25 -4 3 -16 39 39 W 8 13 30.53 1034 10 16.0934 0 0
1:35 pm 13:35 Sunny 27 -3 3 -16 36 36 W 8 13 30.5 1033 10 16.0934 0 0
1:55 pm 13:55 Sunny 27 -3 3 -16 36 36 NW 6 9 30.5 1033 10 16.0934 0 0
2:15 pm 14:15 Sunny 27 -3 5 -15 39 39 W 7 11 30.48 1032 10 16.0934 0 0
2:35 pm 14:35 Sunny 27 -3 3 -16 36 36 W 8 13 30.48 1032 10 16.0934 0 0
2:55 pm 14:55 Sunny 28 -2 5 -15 37 37 W 6 9 30.48 1032 10 16.0934 0 0
3:15 pm 15:15 Sunny 28 -2 5 -15 37 37 W 5 7 30.48 1032 10 16.0934 0 0
3:35 pm 15:35 Sunny 28 -2 5 -15 37 37 WNW 7 11 30.48 1032 10 16.0934 0 0
3:55 pm 15:55 Sunny 28 -2 5 -15 37 37 W 7 11 30.48 1032 10 16.0934 0 0
4:15 pm 16:15 Sunny 27 -3 5 -15 39 39 SW 6 9 30.48 1032 10 16.0934 0 0
4:35 pm 16:35 Sunny 27 -3 5 -15 39 39 SW 5 7 30.45 1031 10 16.0934 0 0
4:55 pm 16:55 Sunny 27 -3 5 -15 39 39 SSW 3 6 30.45 1031 10 16.0934 0 0
5:15 pm 17:15 Clear 25 -4 5 -15 42 42 SW 5 7 30.45 1031 10 16.0934 0 0
5:35 pm 17:35 Clear 23 -5 5 -15 46 46 WSW 5 7 30.48 1032 10 16.0934 0 0
5:55 pm 17:55 Clear 21 -6 9 -13 58 58 WSW 3 6 30.48 1032 10 16.0934 0 0
6:15 pm 18:15 Clear 23 -5 7 -14 50 50 W 3 6 30.48 1032 10 16.0934 0 0
6:35 pm 18:35 Clear 21 -6 7 -14 54 54 SSW 3 6 30.48 1032 10 16.0934 0 0
6:55 pm 18:55 Clear 19 -7 9 -13 63 63 Calm 30.48 1032 10 16.0934 0 0
7:15 pm 19:15 Clear 21 -6 7 -14 54 54 Calm 30.48 1032 10 16.0934 0 0
7:35 pm 19:35 Clear 19 -7 7 -14 58 58 SSW 5 7 30.48 1032 10 16.0934 0 0
7:55 pm 19:55 Clear 18 -8 9 -13 68 68 SW 3 6 30.48 1032 10 16.0934 0 0
8:15 pm 20:15 Clear 16 -9 9 -13 73 73 Calm 30.48 1032 10 16.0934 0 0
8:35 pm 20:35 Clear 14 -10 7 -14 73 73 Calm 30.48 1032 10 16.0934 0 0
8:55 pm 20:55 Clear 12 -11 7 -14 79 79 WSW 6 9 30.48 1032 10 16.0934 0 0
9:15 pm 21:15 Clear 14 -10 7 -14 73 73 SW 5 7 30.48 1032 10 16.0934 0 0
9:35 pm 21:35 Clear 12 -11 9 -13 85 85 WSW 5 7 30.48 1032 10 16.0934 0 0
9:55 pm 21:55 Clear 14 -10 9 -13 79 79 W 3 6 30.48 1032 10 16.0934 0 0
10:15 pm 22:15 Clear 14 -10 7 -14 73 73 Calm 30.48 1032 10 16.0934 0 0
10:35 pm 22:35 Clear 12 -11 7 -14 79 79 WSW 3 6 30.48 1032 10 16.0934 0 0
10:55 pm 22:55 Clear 12 -11 7 -14 79 79 Calm 30.48 1032 10 16.0934 0 0
11:15 pm 23:15 Clear 12 -11 7 -14 79 79 Calm 30.45 1031 10 16.0934 0 0
11:35 pm 23:35 Clear 12 -11 7 -14 79 79 Calm 30.45 1031 10 16.0934 0 0
11:55 pm 23:55 Clear 10 -12 9 -13 92 92 Calm 30.45 1031 10 16.0934 0 0

Powered by AerisWeather